Probability
0 0 0 0 0 0 0 0 0 0 0 0 0 0 0 0 0 0 0 0 0 0 0 0 2 6 12 14 12 8 6 5 5 2 0 0 0 0 0 1 5 18 29
0 0 0 0 0 0 0 0 0 0 0 0 0 0 0 0 0 0 0 0 0 0 0 0 3 6 12 18 19 15 11 8 6 2 1 1 0 0 0 0 3 14 23
0 0 0 0 0 0 0 0 0 0 0 0 0 0 0 0 0 0 0 0 0 0 0 0 2 6 12 22 29 27 21 15 9 4 3 2 1 0 0 0 2 9 17
0 0 0 0 0 0 0 0 0 0 0 0 0 0 0 0 0 0 0 0 0 0 0 0 1 4 11 22 33 36 32 24 15 10 8 5 2 1 0 0 1 6 10
0 0 0 0 0 0 0 0 0 0 0 0 0 0 0 0 0 0 0 0 0 0 0 0 0 2 6 15 27 37 38 31 21 15 13 9 5 2 1 0 1 3 4
0 0 0 0 0 0 0 0 0 0 0 0 0 0 0 0 0 0 0 0 0 0 0 0 0 0 2 6 16 28 37 34 25 19 17 16 11 6 4 1 0 1 2
0 0 0 0 0 0 0 0 0 0 0 0 0 0 0 0 0 0 0 0 0 0 0 0 0 0 0 1 6 16 27 31 26 20 18 21 20 16 10 4 0 1 2
0 0 0 0 0 0 0 0 0 0 0 0 0 0 0 0 0 0 0 0 0 0 0 0 0 0 0 0 1 6 13 19 20 17 18 25 31 30 19 7 1 1 3
0 0 0 0 0 0 0 0 0 0 0 0 0 0 0 0 0 0 0 0 0 0 0 0 0 0 0 0 0 1 5 9 10 10 16 25 35 39 30 13 4 3 4
0 0 0 0 0 0 0 0 0 0 0 0 0 0 0 0 0 0 0 0 0 0 0 0 0 0 0 0 0 1 3 5 4 6 13 21 30 38 36 22 9 6 6
0 0 0 0 0 0 0 0 0 0 0 0 0 0 0 0 0 0 0 0 0 0 0 0 0 0 0 0 0 2 3 3 3 5 9 15 21 29 32 24 13 7 6
0 0 0 0 0 0 0 0 0 0 0 0 0 0 0 0 0 0 0 0 0 0 0 0 0 0 0 0 0 1 1 1 2 4 5 8 11 16 18 16 9 5 4
0 0 0 0 0 0 0 0 0 0 0 0 0 0 0 0 0 0 0 0 0 0 0 0 0 0 0 0 0 0 0 0 1 2 3 3 4 5 6 5 4 2 2
0 0 0 0 0 0 0 0 0 0 0 0 0 0 0 0 0 0 0 0 0 0 0 0 0 0 0 0 0 0 0 0 0 1 1 1 1 1 1 0 0 0 1
0 0 0 0 0 0 0 0 0 0 0 0 0 0 0 0 0 0 0 0 0 0 0 0 0 0 0 0 0 0 0 0 0 0 0 0 0 0 0 0 0 0 0
0 0 0 0 0 0 0 0 0 0 0 0 0 0 0 0 0 0 0 0 0 0 0 0 0 0 0 0 0 0 0 0 0 0 0 0 0 0 0 0 0 0 0
0 0 0 0 0 0 0 0 0 0 0 0 0 0 0 0 0 0 0 0 0 0 0 0 0 0 0 0 0 0 0 0 0 0 0 0 0 0 0 0 0 0 0
0 0 0 0 0 0 0 0 0 0 0 0 0 0 0 0 0 0 0 0 0 0 0 0 0 0 0 0 0 0 0 0 0 0 0 0 0 0 0 0 0 0 0
0 0 0 0 0 0 0 0 0 0 0 0 0 0 0 0 0 0 0 0 0 0 0 0 0 0 0 0 0 0 0 0 0 0 0 0 0 0 0 0 0 0 0
0 0 0 0 0 0 0 0 0 0 0 0 0 0 0 0 0 0 0 0 0 0 0 0 0 0 0 0 0 0 0 0 0 0 0 0 0 0 0 0 0 0 0
0 0 0 0 0 0 0 0 0 0 0 0 0 0 0 0 0 0 0 0 0 0 0 0 0 0 0 0 0 0 0 0 0 0 0 0 0 0 0 0 0 0 0
0 0 0 0 0 0 0 0 0 0 0 0 0 0 0 0 0 0 0 0 0 0 0 0 0 0 0 0 0 0 0 0 0 0 0 0 0 0 0 0 0 0 0
0 0 0 0 0 0 0 0 0 0 0 0 0 0 0 0 0 0 0 0 0 0 0 0 0 0 0 0 0 0 0 0 0 0 0 0 0 0 0 0 0 0 0
0 0 0 0 0 0 0 0 0 0 0 0 0 0 0 0 0 0 0 0 0 0 0 0 0 0 0 0 0 0 0 0 0 0 0 0 0 0 0 0 0 0 0
0 0 0 0 0 0 0 0 0 0 0 0 0 0 0 0 0 0 0 0 0 0 0 0 0 0 0 0 0 0 0 0 0 0 0 0 0 0 0 0 0 0 0
0 0 0 0 0 0 0 0 0 0 0 0 0 0 0 0 0 0 0 0 0 0 0 0 0 0 0 0 0 0 0 0 0 0 0 0 0 0 0 0 0 0 0
Wind_Speed
1 2 2 2 3 3 3 4 5 6 6 6 7 9 10 10 10 9 9 24 29 30 30 31 31 31 31 31 30 29 28 27 27 26 25 24 24 22 21 20 19 19 21
0 1 2 3 3 3 3 4 5 5 5 5 7 9 9 9 8 10 9 14 25 29 30 30 30 31 31 31 30 30 29 27 26 26 25 24 24 23 22 20 19 19 20
1 1 2 3 3 3 4 4 5 4 6 7 8 9 9 8 10 11 12 10 12 22 28 30 31 31 31 31 31 30 29 27 26 25 24 24 24 23 23 21 20 19 20
2 1 2 3 3 3 3 4 3 4 6 6 7 8 8 8 11 12 11 11 10 11 17 28 30 31 31 31 31 30 29 27 25 24 25 24 24 23 23 22 20 19 19
2 2 2 3 3 3 3 5 4 4 6 7 7 7 6 8 10 12 12 13 11 12 10 19 28 30 30 30 30 29 28 26 25 24 24 24 24 23 22 22 21 20 19
3 3 3 3 3 3 3 3 5 5 5 6 9 10 8 10 9 9 11 11 11 14 13 14 13 17 27 29 29 28 28 26 25 24 24 23 23 23 23 22 21 21 20
3 3 3 3 3 3 4 5 4 6 5 5 6 9 9 8 8 8 7 8 12 13 12 13 10 10 12 24 26 27 26 26 25 25 24 23 23 23 22 22 21 21 21
4 3 3 3 3 3 5 5 4 4 5 5 5 10 9 10 7 10 7 9 11 10 12 14 12 13 12 9 16 26 25 25 25 24 24 24 23 23 22 21 21 21 21
4 4 4 4 4 3 4 5 5 5 6 6 3 4 8 10 14 10 10 9 9 9 10 10 14 13 13 10 11 18 23 24 24 24 24 24 23 23 22 20 20 20 20
4 4 4 4 4 4 5 5 5 4 5 8 6 4 6 9 10 12 10 7 9 11 10 11 12 13 13 10 13 20 23 23 23 23 24 24 23 23 21 19 18 19 18
4 5 5 4 5 4 5 6 6 6 5 6 7 7 8 8 8 10 14 13 10 8 8 10 10 10 11 11 9 14 21 22 22 22 23 23 23 23 21 19 17 16 16
4 5 5 5 5 5 6 6 6 7 6 7 7 6 7 8 10 9 12 13 13 12 10 9 9 9 9 9 12 20 21 21 20 20 21 21 22 22 21 20 18 17 15
3 6 5 5 5 6 6 6 6 7 6 7 7 7 7 8 9 9 10 12 14 12 9 8 7 8 9 8 9 20 18 20 19 19 19 19 20 21 21 21 20 19 16
5 6 6 6 7 7 7 6 6 7 6 7 9 8 7 8 7 8 8 10 12 11 10 9 7 6 7 8 12 19 11 19 20 20 19 19 19 20 21 20 20 19 17
5 6 6 6 7 7 7 7 6 7 7 8 8 9 8 8 7 7 8 8 9 12 13 9 6 7 8 8 13 9 8 17 20 20 20 20 20 20 21 20 20 19 18
6 6 6 6 7 7 7 7 7 7 8 8 7 8 9 8 7 7 7 7 8 9 11 9 8 9 10 10 15 10 10 20 19 20 20 20 20 20 20 20 19 19 19
6 6 7 7 7 7 7 7 8 8 9 10 10 10 11 10 8 7 7 7 8 8 11 11 8 8 9 10 10 9 9 8 9 18 20 21 21 20 20 20 20 19 19
6 6 6 7 7 8 7 8 9 10 9 11 12 11 12 10 10 8 7 8 8 8 8 12 10 8 9 9 9 10 9 9 8 17 19 20 20 20 19 20 20 19 19
6 6 6 7 8 8 8 9 9 10 11 12 12 12 12 11 11 9 9 9 8 8 7 8 10 7 6 7 8 9 9 7 10 12 16 17 17 18 18 19 19 18 18
6 6 7 7 8 9 9 9 10 11 11 12 12 12 11 11 12 11 10 9 8 7 7 7 8 7 6 6 6 8 9 7 8 10 10 12 15 17 18 19 19 18 18
7 6 6 7 8 8 8 10 10 11 10 10 10 10 10 14 17 13 10 8 6 5 6 7 8 8 7 7 7 6 9 9 9 5 6 8 8 8 9 13 16 17 18
6 6 7 8 8 8 15 20 15 8 8 8 8 8 9 12 16 20 21 19 14 8 7 6 7 8 8 8 8 8 8 9 7 3 6 10 7 8 7 7 13 17 17
6 6 7 7 8 11 18 19 19 9 6 6 7 7 8 10 15 10 15 17 14 17 15 8 7 8 8 8 9 10 8 8 9 7 7 9 5 8 7 9 16 17 17
6 6 7 7 8 10 17 18 18 7 6 7 7 7 8 9 12 14 8 6 7 8 10 8 6 8 8 8 8 8 8 8 8 7 6 7 5 6 8 7 15 18 17
6 6 6 7 7 9 15 17 16 4 5 7 6 7 8 9 18 19 6 5 7 7 10 14 15 13 16 16 12 6 6 7 7 4 3 5 4 6 6 7 9 14 16
7 6 6 6 7 7 13 15 15 4 5 6 5 6 12 15 18 16 4 4 7 6 5 7 9 11 9 11 14 6 5 6 6 5 3 3 4 5 6 4 4 5 7
Wind_Direction
24 355 335 328 321 319 324 324 324 325 327 325 325 330 323 317 313 313 317 318 320 319 317 314 311 307 303 299 295 292 287 284 280 278 278 277 277 277 278 277 270 248 232
141 325 318 316 313 313 315 318 315 319 314 315 318 320 313 308 308 308 309 313 316 316 316 314 311 308 305 301 295 291 287 282 279 277 276 275 274 273 274 274 273 255 237
192 243 293 302 301 306 315 316 312 318 321 323 318 313 310 307 306 306 306 303 306 311 313 313 311 308 304 302 297 291 287 283 279 277 275 275 273 272 270 270 271 262 242
211 230 275 286 291 303 313 312 316 321 317 313 310 306 306 304 304 301 300 299 299 301 307 308 308 308 306 302 299 293 287 284 281 278 275 273 273 271 269 266 267 266 248
234 235 261 272 288 300 306 318 330 310 309 311 307 302 300 300 296 297 297 296 294 295 296 303 306 307 305 301 298 295 290 285 282 280 276 273 271 270 269 266 263 264 254
248 251 262 273 286 296 299 300 302 302 295 299 309 309 297 292 289 285 288 294 294 294 295 295 298 301 302 302 299 295 291 287 283 281 279 276 273 272 270 265 262 260 258
256 261 277 281 283 283 286 294 297 303 299 297 306 311 300 284 279 284 282 287 290 291 288 291 290 292 294 299 302 299 293 289 285 282 280 279 277 274 272 266 262 258 255
263 271 264 268 275 280 292 296 299 291 297 315 308 316 314 312 303 306 289 288 289 289 290 292 290 289 288 288 293 299 297 289 284 282 281 281 280 278 272 269 263 259 255
263 265 268 265 269 263 275 285 286 281 300 303 274 283 304 306 313 300 295 291 288 288 288 289 288 288 290 289 290 295 293 288 283 280 280 280 281 279 276 271 265 261 257
262 265 266 264 264 261 268 278 297 281 285 302 301 257 259 281 297 304 303 289 286 292 290 291 292 290 288 287 287 292 293 289 281 277 277 279 280 281 281 277 272 264 261
261 265 264 260 260 261 265 270 281 277 269 279 293 295 295 291 280 289 300 306 305 298 291 287 287 287 289 287 285 290 293 288 282 278 279 279 281 283 286 286 287 278 266
257 261 261 254 256 260 263 267 268 271 270 273 280 283 289 294 299 296 296 301 303 303 297 291 287 286 289 289 292 299 300 296 288 282 280 280 283 287 290 294 296 295 281
247 255 260 255 257 257 262 263 265 269 269 272 276 280 280 280 285 290 292 298 299 300 295 290 281 285 293 297 296 301 303 303 298 292 286 283 285 288 289 291 296 298 295
239 248 249 250 255 260 269 267 269 268 270 269 279 279 281 282 282 283 285 294 299 301 301 296 296 288 297 299 296 304 303 306 302 298 293 289 286 285 284 284 288 291 295
243 246 245 252 258 261 263 266 266 267 270 271 274 275 275 280 282 281 279 280 288 299 305 304 307 302 307 302 301 305 304 302 300 297 293 289 285 281 279 279 281 285 288
243 251 254 255 260 262 263 264 265 266 268 272 273 272 275 278 282 284 283 277 274 278 288 296 299 301 305 307 307 312 304 305 304 299 292 287 284 281 278 276 276 277 280
239 244 250 255 261 264 263 262 264 270 269 274 276 275 276 277 279 281 283 281 279 276 283 293 294 297 300 305 307 305 300 297 296 298 292 286 281 279 278 274 272 271 273
237 242 250 257 263 267 263 262 268 275 270 274 276 276 277 279 277 278 278 280 280 277 278 292 301 301 299 300 303 307 309 307 303 298 294 289 282 277 274 272 269 267 267
239 246 251 258 264 267 267 265 264 269 269 269 272 273 274 275 276 275 276 276 277 283 278 286 296 297 296 302 310 308 305 296 300 301 300 292 289 284 279 273 268 265 263
239 249 254 258 264 268 268 269 269 268 269 269 269 269 269 270 271 273 275 272 273 279 283 286 292 298 298 301 303 309 311 308 305 302 297 301 298 293 284 276 268 264 262
244 248 258 266 269 271 267 264 260 263 266 269 270 269 270 278 285 287 287 282 278 278 286 292 296 301 304 310 308 303 305 309 304 291 314 305 301 290 283 278 272 262 258
244 251 257 266 272 276 289 295 294 275 271 274 278 280 280 286 292 300 304 304 306 302 292 285 291 295 294 294 295 296 301 307 306 310 320 302 289 281 275 263 262 262 257
241 252 258 263 268 276 292 298 301 301 283 279 281 283 289 290 302 292 292 296 303 306 307 297 285 281 283 285 287 291 290 288 285 293 301 290 274 276 269 266 266 263 258
236 248 257 261 267 278 296 303 306 308 286 279 280 277 278 281 287 289 276 268 272 282 291 291 267 268 273 276 271 282 288 289 280 273 266 274 282 280 282 272 267 259 255
236 243 250 258 266 280 298 303 308 290 283 283 279 278 285 278 292 308 304 277 284 287 299 307 309 309 310 314 311 313 308 303 300 289 262 272 297 296 281 265 260 254 249
233 242 251 254 261 270 292 304 310 285 286 285 280 281 301 306 310 324 314 286 290 287 289 306 311 311 308 306 312 307 288 287 290 290 279 304 294 307 300 282 267 255 246